Location: Göttingen
(51.5413°N, 9.9158°E)
Time: 01:46:33
(UTC+01:00)

ISS - Visible Passes

Search period start: 27 January 2022 00:00
Search period end: 06 February 2022 00:00
Orbit: 413 x 422 km, 51.6° (Epoch: 26 January)

Date Brightness Start Highest point End Pass type
(mag) Time Alt. Az. Time Alt. Az. Time Alt. Az.
27 Jan -3.9 19:05:06 10° W 19:08:27 89° NNW 19:08:31 86° E visible
28 Jan -3.8 18:17:03 10° W 18:20:23 86° N 18:22:28 21° E visible
28 Jan -1.5 19:53:50 10° W 19:55:24 25° W 19:55:24 25° W visible
29 Jan -3.8 19:05:46 10° W 19:09:06 70° SSW 19:09:24 64° SSE visible
30 Jan -3.8 18:17:43 10° W 18:21:03 83° SSW 18:23:26 18° ESE visible
30 Jan -1.5 19:54:36 10° W 19:56:23 23° WSW 19:56:23 23° WSW visible
31 Jan -2.8 19:06:27 10° W 19:09:39 42° SSW 19:10:30 34° SSE visible
01 Feb -3.2 18:18:22 10° W 18:21:39 56° SSW 18:24:43 11° ESE visible
01 Feb -1.1 19:55:46 10° W 19:57:40 16° SW 19:57:40 16° SW visible
02 Feb -1.6 19:07:20 10° W 19:10:03 23° SW 19:12:02 14° SSE visible
03 Feb -2.1 18:19:06 10° W 18:22:07 32° SSW 18:25:07 10° SE visible
04 Feb -0.6 19:09:11 10° WSW 19:10:16 11° SW 19:11:20 10° SSW visible
05 Feb -0.9 18:20:13 10° W 18:22:25 17° SW 18:24:37 10° S visible
